Flag for Ethiopia Weather past 2 weeks in Adama, Ethiopia

Now
57 °F

Thunderstorms. Mostly cloudy.


Feels Like: 55 °F
Forecast: 57 / 79 °F
Wind: 9 mph from Northwest

Location: Addis Ababa Airport

Current Time: Jul 26, 2014 at 2:14:58 PM

Latest Report: Jul 26, 2014 at 2:00 PM


Visibility: 6 mi

Pressure: 30.36 "Hg

Humidity: 88%

Dew point: 54 °F

Location of AdamaLocation

Historic Weather in Adama — Graph

°F

Adama temperature yesterday

Maximum temperature yesterday: 66 °F (at 12:00 PM)
Minimum temperature yesterday: 57 °F (at 2:00 AM)
Average temperature yesterday: 61 °F

Past Weeks' High & Low Weather Summary

 TemperatureHumidityPressure
High75 °F (Jul 23, 5:00 PM)100% (Jul 18, 7:00 AM)30.48 "Hg (Jul 18, 7:00 AM)
Low54 °F (Jul 20, 9:00 AM)49% (Jul 23, 1:00 PM)30.24 "Hg (Jul 14, 5:00 PM)
Average62 °F78%30.35 "Hg
* Reported Jul 11 10:00 AM — Jul 26 10:00 AM, Adama, Weather by CustomWeather, © 2014

Note: Actual official high and low records may vary slightly from our data, if they occured in-between our weather recording intervals... More about our weather records

Advertising

Adama weather history for previous 24 hours

 ConditionsComfort  
Time TempWeatherWind HumidityBarometerVisibility
10:00 AM
Jul 26
63 °FFog.5 mph77%30.39 "Hg6 mi
9:00 AM61 °FFog.2 mph83%30.39 "Hg6 mi
8:00 AM57 °FFog.2 mph88%30.36 "Hg6 mi
7:00 AM57 °FPartly sunny.5 mph88%30.36 "HgN/A
6:00 AM55 °FPassing clouds.5 mph82%30.33 "HgN/A
5:00 AM55 °FPassing clouds.7 mph82%30.33 "HgN/A
4:00 AM55 °FPassing clouds.9 mph82%30.30 "HgN/A
3:00 AM55 °FPassing clouds.5 mph82%30.33 "HgN/A
2:00 AM55 °FPassing clouds.5 mph82%30.33 "HgN/A
1:00 AM57 °FPassing clouds.5 mph82%30.33 "HgN/A
12:00 AM59 °FPassing clouds.2 mph82%30.36 "HgN/A
11:00 PM
Jul 25
59 °FPassing clouds.2 mph88%30.36 "HgN/A
9:00 PM59 °FPassing clouds.5 mph88%30.33 "HgN/A
8:00 PM61 °FPassing clouds.7 mph83%30.30 "HgN/A
7:00 PM61 °FPartly cloudy.12 mph83%30.27 "HgN/A
6:00 PM64 °FBroken clouds.9 mph78%30.27 "HgN/A
5:00 PM64 °FBroken clouds.7 mph73%30.27 "HgN/A
4:00 PM63 °FBroken clouds.9 mph83%30.27 "HgN/A
3:00 PM61 °FPartly sunny.7 mph83%30.30 "HgN/A
Weather by CustomWeather, © 2014

See weather overviewHow to use our weather pages